This is the latest recevied weather packets stored in our database for station/object K3JSE-4. If no packets are shown the sender has not sent any weather packets the latest 10 day(s).
| Time | Temp. | Humidity | Pressure | Rain* | Wind** | Luminosity | Snow |
|---|---|---|---|---|---|---|---|
| 1777416643 | 12.78° C | 62% | 1018.7 hPa | 0 mm | - | - | - |
| 1777416343 | 12.78° C | 61% | 1018.8 hPa | 0 mm | - | - | - |
| 1777416043 | 12.78° C | 64% | 1019 hPa | 0 mm | - | - | - |
| 1777415743 | 12.78° C | 61% | 1019 hPa | 0 mm | - | - | - |
| 1777415443 | 12.78° C | 61% | 1019.1 hPa | 0 mm | - | - | - |
| 1777415143 | 12.78° C | 62% | 1019.1 hPa | 0 mm | - | - | - |
| 1777414843 | 12.78° C | 62% | 1019 hPa | 0 mm | - | - | - |
| 1777414543 | 12.78° C | 62% | 1019.2 hPa | 0 mm | - | - | - |
| 1777414243 | 12.78° C | 60% | 1019.2 hPa | 0 mm | - | - | - |
| 1777413943 | 12.78° C | 60% | 1019 hPa | 0 mm | - | - | - |
| 1777413643 | 12.78° C | 60% | 1019.2 hPa | 0 mm | - | - | - |
| 1777413343 | 12.78° C | 61% | 1019 hPa | 0 mm | - | - | - |
| 1777413043 | 12.78° C | 60% | 1019 hPa | 0 mm | - | - | - |
| 1777412743 | 12.78° C | 58% | 1019.2 hPa | 0 mm | - | - | - |
| 1777412443 | 12.78° C | 60% | 1019 hPa | 0 mm | - | - | - |
| 1777412143 | 12.78° C | 60% | 1019.1 hPa | 0 mm | - | - | - |
| 1777411843 | 12.78° C | 59% | 1019 hPa | 0 mm | - | - | - |
| 1777411543 | 12.78° C | 59% | 1019.1 hPa | 0 mm | - | - | - |
| 1777411243 | 12.78° C | 59% | 1019 hPa | 0 mm | - | - | - |
| 1777410943 | 12.78° C | 58% | 1019 hPa | 0 mm | - | - | - |
| 1777410643 | 12.78° C | 59% | 1019.1 hPa | 0 mm | - | - | - |
| 1777410343 | 12.78° C | 61% | 1019 hPa | 0 mm | - | - | - |
| 1777410043 | 12.78° C | 61% | 1019.1 hPa | 0 mm | - | - | - |
| 1777409743 | 12.78° C | 60% | 1019 hPa | 0 mm | - | - | - |
| 1777409443 | 12.78° C | 58% | 1019 hPa | 0 mm | - | - | - |
* Rain latest hour (hover to see other rain measurements)
** Current wind speed in m/s (hover to see current wind gust speed)